Newport News, VA

10:41 PM EST on February 12, 2016 (GMT -0500)
Felker Army Air Field

Weather History for KFAF - September, 2012

Change the Weather History Date:

Saturday, September 29, 2012

  Actual Average Record
Temperature  
Mean Temperature 64 °F -  
Max Temperature 68 °F 74 °F 84 °F (1998)
Min Temperature 59 °F 58 °F 51 °F (2006)
Degree Days  
Heating Degree Days 1    
Growing Degree Days 14 (Base 50)    
Moisture  
Dew Point 59 °F    
Average Humidity 86    
Maximum Humidity 97    
Minimum Humidity 77    
Precipitation  
Precipitation 0.03 in - - ()
Sea Level Pressure  
Sea Level Pressure 29.98 in    
Wind  
Wind Speed 5 mph (North)    
Max Wind Speed 9 mph    
Max Gust Speed -    
Visibility 10 miles    
Events Rain    
Averages and records for this station are not official NWS values.
T = Trace of Precipitation, MM = Missing Value Source: NWS Daily Summary

Daily Weather History Graph

Daily Weather History Graph

Search for Another Location

Airport or City:

Trip Planner

Search our weather history database for the weather conditions in past years. The results will help you decide how hot, cold, wet, or windy it might be!

Date:

Astronomy

Sep. 29, 2012 Rise Set
Actual Time 7:00 AM EDT 6:52 PM EDT
Civil Twilight 6:34 AM EDT 7:17 PM EDT
Nautical Twilight 6:04 AM EDT 7:48 PM EDT
Astronomical Twilight 5:33 AM EDT 8:18 PM EDT
Moon 6:24 PM EDT (9/29) 6:29 AM EDT (9/29)
Length of Visible Light 12h 43m
Length of Day
11h 51m
Full, 100% of the Moon is Illuminated
Sep 29
Full
Sep 29
Full
Oct 8
Last Quarter
Oct 15
New
Oct 21
First Quarter

Hourly Weather History & Observations

Time (EDT) Temp. Dew Point Humidity Pressure Visibility Wind Dir Wind Speed Gust Speed Precip Events Conditions
12:02 AM 69.8 °F 66.2 °F 88% 29.99 in 10.0 mi NNW 8.1 mph - N/A   Mostly Cloudy
12:09 AM 69.8 °F 66.2 °F 88% 29.99 in 10.0 mi NNW 6.9 mph - N/A   Mostly Cloudy
12:17 AM 69.8 °F 66.2 °F 88% 29.99 in 10.0 mi NNW 5.8 mph - N/A   Mostly Cloudy
12:55 AM 68.5 °F 66.0 °F 92% 29.98 in 10.0 mi North 8.1 mph - N/A   Overcast
1:26 AM 66.2 °F 62.6 °F 88% 29.99 in 10.0 mi North 9.2 mph - N/A   Overcast
1:37 AM 66.2 °F 62.6 °F 88% 30.00 in 10.0 mi NNE 8.1 mph - N/A   Overcast
1:39 AM 66.2 °F 60.8 °F 83% 29.99 in 10.0 mi Variable 6.9 mph - N/A   Overcast
1:49 AM 66.2 °F 60.8 °F 83% 29.99 in 10.0 mi North 8.1 mph - N/A   Overcast
1:55 AM 65.5 °F 61.7 °F 88% 30.00 in 10.0 mi Variable 4.6 mph - N/A   Overcast
2:50 AM 64.4 °F 59.0 °F 83% 29.99 in 10.0 mi NNE 6.9 mph - N/A   Mostly Cloudy
2:55 AM 64.4 °F 58.8 °F 82% 29.99 in 10.0 mi NNE 5.8 mph - N/A   Mostly Cloudy
3:51 AM 64.4 °F 57.2 °F 77% 29.99 in 10.0 mi North 8.1 mph - N/A   Mostly Cloudy
3:55 AM 64.2 °F 57.4 °F 78% 29.99 in 10.0 mi North 5.8 mph - N/A   Overcast
4:03 AM 64.4 °F 57.2 °F 77% 29.99 in 10.0 mi North 6.9 mph - N/A   Overcast
4:55 AM 63.9 °F 58.1 °F 81% 29.99 in 10.0 mi North 4.6 mph - N/A   Overcast
5:02 AM 64.4 °F 59.0 °F 83% 29.99 in 10.0 mi North 6.9 mph - N/A Rain Light Rain
5:33 AM 62.6 °F 57.2 °F 82% 29.99 in 10.0 mi North 9.2 mph - N/A   Partly Cloudy
5:49 AM 62.6 °F 57.2 °F 82% 29.99 in 10.0 mi North 5.8 mph - N/A   Light Drizzle
5:55 AM 62.8 °F 57.6 °F 83% 29.99 in 10.0 mi North 4.6 mph - 0.00 in Rain Light Rain
6:17 AM 62.6 °F 57.2 °F 82% 29.99 in 10.0 mi Calm Calm - N/A   Scattered Clouds
6:48 AM 62.6 °F 57.2 °F 82% 30.00 in 10.0 mi Calm Calm - N/A Rain Light Rain
6:55 AM 62.4 °F 57.6 °F 84% 30.00 in 10.0 mi NNW 3.5 mph - 0.01 in Rain Light Rain
7:17 AM 62.6 °F 59.0 °F 88% 30.00 in 10.0 mi Calm Calm - N/A   Mostly Cloudy
7:55 AM 61.9 °F 59.9 °F 93% 30.01 in 10.0 mi Calm Calm - 0.00 in   Overcast
8:55 AM 63.3 °F 58.1 °F 83% 30.01 in 10.0 mi NNE 3.5 mph - N/A   Overcast
9:03 AM 62.6 °F 59.0 °F 88% 30.03 in 10.0 mi NW 4.6 mph - N/A   Light Drizzle
9:37 AM 60.8 °F 55.4 °F 82% 30.03 in 10.0 mi NNW 4.6 mph - N/A   Overcast
9:55 AM 61.9 °F 55.9 °F 81% 30.02 in 10.0 mi NNE 3.5 mph - 0.01 in   Overcast
10:19 AM 62.6 °F 57.2 °F 82% 30.02 in 10.0 mi NNW 6.9 mph - N/A   Light Drizzle
10:55 AM 60.1 °F 54.0 °F 80% 30.02 in 10.0 mi NNE 6.9 mph - 0.00 in Rain Light Rain
11:27 AM 59.0 °F 53.6 °F 82% 30.01 in 10.0 mi Calm Calm - N/A   Mostly Cloudy
11:35 AM 59.0 °F 53.6 °F 82% 30.01 in 10.0 mi Calm Calm - N/A Rain Light Rain
11:55 AM 59.5 °F 55.4 °F 86% 30.00 in 10.0 mi Variable 3.5 mph - 0.01 in   Light Drizzle
12:00 PM 59.0 °F 55.4 °F 88% 29.99 in 10.0 mi ENE 3.5 mph - N/A   Overcast
12:17 PM 60.8 °F 55.4 °F 82% 29.99 in 10.0 mi Calm Calm - N/A Rain Light Rain
12:31 PM 60.8 °F 55.4 °F 82% 29.99 in 10.0 mi Calm Calm - N/A   Overcast
12:48 PM 60.8 °F 57.2 °F 88% 29.99 in 10.0 mi Calm Calm - N/A Rain Light Rain
12:55 PM 61.3 °F 57.0 °F 86% 29.99 in 10.0 mi Calm Calm - 0.00 in Rain Light Rain
1:03 PM 60.8 °F 57.2 °F 88% 29.99 in 10.0 mi Calm Calm - N/A   Overcast
1:55 PM 63.3 °F 57.4 °F 81% 29.97 in 10.0 mi Calm Calm - 0.00 in   Overcast
2:55 PM 63.3 °F 59.2 °F 86% 29.96 in 10.0 mi SW 4.6 mph - N/A   Overcast
3:55 PM 62.4 °F 58.5 °F 87% 29.94 in 10.0 mi South 3.5 mph - N/A   Overcast
4:55 PM 63.0 °F 57.4 °F 82% 29.93 in 10.0 mi Calm Calm - N/A   Mostly Cloudy
5:55 PM 63.0 °F 57.0 °F 81% 29.93 in 10.0 mi Calm Calm - N/A   Mostly Cloudy
6:55 PM 62.4 °F 57.7 °F 85% 29.93 in 10.0 mi Calm Calm - N/A   Mostly Cloudy
7:55 PM 61.0 °F 59.0 °F 93% 29.93 in 10.0 mi Calm Calm - N/A   Overcast
8:55 PM 61.2 °F 59.0 °F 93% 29.93 in 10.0 mi Calm Calm - N/A   Overcast
9:55 PM 61.0 °F 59.2 °F 94% 29.94 in 10.0 mi Calm Calm - N/A   Mostly Cloudy
10:05 PM 60.8 °F 59.0 °F 94% 29.93 in 10.0 mi Calm Calm - N/A   Light Drizzle
10:32 PM 60.8 °F 59.0 °F 94% 29.93 in 10.0 mi Calm Calm - N/A   Scattered Clouds
10:44 PM 60.8 °F 59.0 °F 94% 29.93 in 10.0 mi NNW 3.5 mph - N/A Rain Light Rain
10:55 PM 60.1 °F 59.2 °F 97% 29.93 in 10.0 mi Calm Calm - 0.00 in   Light Drizzle
10:56 PM 60.8 °F 59.0 °F 94% 29.93 in 10.0 mi Calm Calm - N/A   Mostly Cloudy
11:55 PM 59.5 °F 58.8 °F 97% 29.93 in 9.0 mi Calm Calm - N/A   Mostly Cloudy